Regional Weather Roundup
Issued by NWS Northern Indiana

Home | Current Version | Previous Version | Graphics & Text | Print | Product List | Glossary On
Versions: 1 2 3 4 5 6 7 8 9 10 11 12 13 14 15 16 17 18 19 20 21 22 23 24 25 26 27 28 29 30 31 32 33 34 35 36 37 38 39 40 41 42 43 44 45 46 47 48 49 50
000
ASUS43 KIWX 200910
RWRIWX

KIWX WEATHER ROUNDUP
NATIONAL WEATHER SERVICE NORTHERN INDIANA
500 AM EDT SUN AUG 20 2017

NOTE: "FAIR" INDICATES FEW OR NO CLOUDS BELOW 12,000 FEET WITH NO
SIGNIFICANT WEATHER AND/OR OBSTRUCTIONS TO VISIBILITY.

* THESE STATIONS ARE NOT UNDER NWS QUALITY CONTROL. THEY ALSO MAY NOT
  REPORT WEATHER SUCH AS PRECIPITATION OR FOG.

INZ001>027-201000-
NORTHERN INDIANA

CITY           SKY/WX    TMP DP  RH WIND       PRES   REMARKS
GARY*          CLEAR     65  59  81 SE5       30.01F
VALPARAISO     CLEAR     59  57  93 NE3       30.02F
MICHIGAN CITY* CLEAR     61  59  94 CALM      30.02F
LAPORTE*       CLEAR     56  54  94 CALM      30.03F
KNOX*            N/A     54  54 100 CALM      30.02S VSB 1
SOUTH BEND     CLEAR     59  59 100 CALM      30.03F
GOSHEN         CLEAR     57  54  89 CALM      30.03F FOG
MONTICELLO*    CLEAR     63  61  96 CALM      30.01F
LOGANSPORT*    CLEAR     59  59 100 E3        30.03F
ROCHESTER*     CLEAR     59  59 100 CALM      30.03F
WARSAW*        CLEAR     57  57 100 CALM      30.04S FOG
AUBURN*        FOG       57  55  94 CALM      30.06R VSB 1
FORT WAYNE     CLEAR     59  57  93 CALM      30.05R
HUNTINGTON*    CLEAR     59  58  96 CALM      30.04S FOG
PERU/GRISSOM   PTCLDY    64  61  90 E3        30.02S
MARION*        CLEAR     61  59  94 CALM      30.04S

$$
INZ028>050-201000-
CENTRAL INDIANA

CITY           SKY/WX    TMP DP  RH WIND       PRES   REMARKS
LAFAYETTE      CLEAR     63  61  93 CALM      30.00F
KOKOMO*        PTCLDY    62  60  93 CALM      30.04S
MUNCIE*        PTCLDY    65  61  87 CALM      30.04S
INDIANAPOLIS   PTCLDY    71  62  73 E7        30.00F

$$
MIZ043>046-050>051-056>058-064>065-071>073-077>080-201000-
SOUTHWEST LOWER MICHIGAN

CITY           SKY/WX    TMP DP  RH WIND       PRES   REMARKS
BATTLE CREEK   CLEAR     57  55  93 CALM      30.05S
BENTON HARBOR  CLEAR     56  54  93 CALM      30.02S
COLDWATER*     CLEAR     56  56 100 CALM      30.05S
HILLSDALE*     CLEAR     55  54  94 CALM      30.06S
HOLLAND        CLEAR     58  55  90 S3        30.02F
GRAND RAPIDS   CLEAR     59  58  96 CALM      30.02F
KALAMAZOO      CLEAR     57  54  89 CALM      30.04S FOG
STURGIS*       CLEAR     56  55  99 CALM      30.04S
THREE RIVERS*  FAIR      56  55  94 CALM      30.04F

$$
OHZ001>008-015>018-024>025-201000-
NORTHWEST OHIO

CITY           SKY/WX    TMP DP  RH WIND       PRES   REMARKS
WAUSEON*       FAIR      55  55 100 CALM      30.05S FOG
DEFIANCE       CLEAR     59  57  93 CALM      30.05S
FINDLAY        CLEAR     61  56  83 CALM      30.05R
TOLEDO EXPRESS CLEAR     59  59 100 CALM      30.05R FOG
TOLEDO METCALF CLEAR     62  59  90 CALM      30.06R
LIMA           CLEAR     60  58  92 CALM      30.06R

$$
AND FOR LAKE MICHIGAN COASTAL AND OPEN LAKE BUOY OBSERVATIONS

STATION/POSITION TEMP    WIND        PRES    VSBY  WAVE
                 AIR SEA DIR/SP/G                  HT/PER
                 (F)     (DEG/KT/KT) (MB)    (MI)  (FT/S)
CALUMET HARBOR    69     170/  4/  5 1015.3F
MICHIGAN CITY     66     130/  9/ 10   N/A
BURNS HARBOR      70     150/  9/ 12 1016.6F
SAINT JOSEPH      62     150/  2/  4 1017.3
SOUTH LAKE BUOY   72 71  170/  8/  8 1015.7F         1
4 MI NW BRIDGMAN  69 76  160/ 12/ 16 1016.0          1
MICHIGAN CITY     69 74  160/ 12/ 14   N/A           1

$$
&&




USA.gov is the U.S. government's official web portal to all federal, state and local government web resources and services.